"Period start","avg(HW err(1)/warn(2) (#))","avg(Visibility (m))","avg(Weather code (#))","avg(Precip intensity (mm/h))","min(HW err(1)/warn(2) (#))","max(HW err(1)/warn(2) (#))","std(HW err(1)/warn(2) (#))","med(HW err(1)/warn(2) (#))","min(Visibility (m))","max(Visibility (m))","std(Visibility (m))","med(Visibility (m))","min(Weather code (#))","max(Weather code (#))","std(Weather code (#))","med(Weather code (#))","min(Precip intensity (mm/h))","max(Precip intensity (mm/h))","std(Precip intensity (mm/h))","med(Precip intensity (mm/h))"
2016-09-09 00:00:00,2,50000,0,0.00,2,2,0,2,50000,50000,0,50000,0,0,0,0,0.00,0.00,0.00,0.00
2016-09-09 00:10:00,2,49481,0,0.00,2,2,0,2,46537,50000,1098,50000,0,0,0,0,0.00,0.00,0.00,0.00
2016-09-09 00:20:00,2,46113,0,0.00,2,2,0,2,39661,50000,4072,47900,0,0,0,0,0.00,0.00,0.00,0.00
2016-09-09 00:30:00,2,38410,0,0.00,2,2,0,2,13885,50000,14643,47154,0,0,0,0,0.00,0.00,0.00,0.00
2016-09-09 00:40:00,2,9644,0,0.00,2,2,0,2,6681,17706,3107,8572,0,0,0,0,0.00,0.00,0.00,0.00
2016-09-09 00:50:00,2,13197,10,0.00,2,2,0,2,7297,25421,5591,10792,10,10,0,10,0.00,0.00,0.00,0.00
2016-09-09 01:00:00,2,18474,2,0.00,2,2,0,2,13575,24638,2784,18342,0,10,4,0,0.00,0.00,0.00,0.00
2016-09-09 01:10:00,2,17510,0,0.00,2,2,0,2,12757,26669,4853,14888,0,0,0,0,0.00,0.00,0.00,0.00
2016-09-09 01:20:00,2,25883,0,0.00,2,2,0,2,16410,39861,7095,25261,0,0,0,0,0.00,0.00,0.00,0.00
2016-09-09 01:30:00,2,45783,0,0.00,2,2,0,2,38674,50000,3450,45096,0,0,0,0,0.00,0.00,0.00,0.00
2016-09-09 01:40:00,2,49186,0,0.00,2,2,0,2,45331,50000,1495,50000,0,0,0,0,0.00,0.00,0.00,0.00
2016-09-09 01:50:00,2,50000,0,0.00,2,2,0,2,50000,50000,0,50000,0,0,0,0,0.00,0.00,0.00,0.00
2016-09-09 02:00:00,2,49824,0,0.00,2,2,0,2,48238,50000,529,50000,0,0,0,0,0.00,0.00,0.00,0.00
2016-09-09 02:10:00,2,49449,0,0.00,2,2,0,2,47393,50000,984,50000,0,0,0,0,0.00,0.00,0.00,0.00
2016-09-09 02:20:00,2,49698,0,0.00,2,2,0,2,48190,50000,619,50000,0,0,0,0,0.00,0.00,0.00,0.00
2016-09-09 02:30:00,2,47294,0,0.00,2,2,0,2,42447,50000,2979,48608,0,0,0,0,0.00,0.00,0.00,0.00
2016-09-09 02:40:00,2,49561,0,0.00,2,2,0,2,45609,50000,1317,50000,0,0,0,0,0.00,0.00,0.00,0.00
2016-09-09 02:50:00,2,49533,0,0.00,2,2,0,2,46501,50000,1069,50000,0,0,0,0,0.00,0.00,0.00,0.00
2016-09-09 03:00:00,2,48102,0,0.00,2,2,0,2,43825,50000,1996,48364,0,0,0,0,0.00,0.00,0.00,0.00
2016-09-09 03:10:00,2,49939,0,0.00,2,2,0,2,49396,50000,181,50000,0,0,0,0,0.00,0.00,0.00,0.00
2016-09-09 03:20:00,2,49142,0,0.00,2,2,0,2,46078,50000,1334,50000,0,0,0,0,0.00,0.00,0.00,0.00
2016-09-09 03:30:00,2,49113,0,0.00,2,2,0,2,43740,50000,1921,50000,0,0,0,0,0.00,0.00,0.00,0.00
2016-09-09 03:40:00,2,49189,0,0.00,2,2,0,2,46450,50000,1285,50000,0,0,0,0,0.00,0.00,0.00,0.00
2016-09-09 03:50:00,2,49962,0,0.00,2,2,0,2,49623,50000,113,50000,0,0,0,0,0.00,0.00,0.00,0.00
2016-09-09 04:00:00,2,49937,0,0.00,2,2,0,2,49371,50000,189,50000,0,0,0,0,0.00,0.00,0.00,0.00
2016-09-09 04:10:00,2,47961,0,0.00,2,2,0,2,40940,50000,3474,50000,0,0,0,0,0.00,0.00,0.00,0.00
2016-09-09 04:20:00,2,48686,0,0.00,2,2,0,2,42680,50000,2246,50000,0,0,0,0,0.00,0.00,0.00,0.00
2016-09-09 04:30:00,2,50000,0,0.00,2,2,0,2,50000,50000,0,50000,0,0,0,0,0.00,0.00,0.00,0.00
2016-09-09 04:40:00,2,48111,0,0.00,2,2,0,2,42342,50000,2985,49978,0,0,0,0,0.00,0.00,0.00,0.00
2016-09-09 04:50:00,2,49530,0,0.00,2,2,0,2,47701,50000,781,50000,0,0,0,0,0.00,0.00,0.00,0.00
2016-09-09 05:00:00,2,46758,0,0.00,2,2,0,2,37993,50000,4131,49034,0,0,0,0,0.00,0.00,0.00,0.00
2016-09-09 05:10:00,2,47766,0,0.00,2,2,0,2,43964,50000,2396,48867,0,0,0,0,0.00,0.00,0.00,0.00
2016-09-09 05:20:00,2,48378,0,0.00,2,2,0,2,43723,50000,2526,50000,0,0,0,0,0.00,0.00,0.00,0.00
2016-09-09 05:30:00,2,41475,0,0.00,2,2,0,2,28683,50000,6820,42137,0,0,0,0,0.00,0.00,0.00,0.00
2016-09-09 05:40:00,2,49353,0,0.00,0,2,1,2,46804,50000,1149,50000,0,0,0,0,0.00,0.00,0.00,0.00
2016-09-09 05:50:00,1,49158,0,0.00,0,2,1,0,45279,50000,1525,50000,0,0,0,0,0.00,0.00,0.00,0.00
2016-09-09 06:00:00,0,48910,0,0.00,0,2,1,0,44911,50000,1789,50000,0,0,0,0,0.00,0.00,0.00,0.00
2016-09-09 06:10:00,2,50000,0,0.00,0,2,1,2,50000,50000,0,50000,0,0,0,0,0.00,0.00,0.00,0.00
2016-09-09 06:20:00,2,50000,0,0.00,2,2,0,2,50000,50000,0,50000,0,0,0,0,0.00,0.00,0.00,0.00
2016-09-09 06:30:00,2,50000,0,0.00,2,2,0,2,50000,50000,0,50000,0,0,0,0,0.00,0.00,0.00,0.00
2016-09-09 06:40:00,2,49984,0,0.00,2,2,0,2,49837,50000,49,50000,0,0,0,0,0.00,0.00,0.00,0.00
2016-09-09 06:50:00,2,49972,0,0.00,2,2,0,2,49717,50000,85,50000,0,0,0,0,0.00,0.00,0.00,0.00
2016-09-09 07:00:00,2,50000,0,0.00,2,2,0,2,50000,50000,0,50000,0,0,0,0,0.00,0.00,0.00,0.00
2016-09-09 07:10:00,2,49860,0,0.00,2,2,0,2,48598,50000,421,50000,0,0,0,0,0.00,0.00,0.00,0.00
2016-09-09 07:20:00,2,50000,0,0.00,2,2,0,2,50000,50000,0,50000,0,0,0,0,0.00,0.00,0.00,0.00
2016-09-09 07:30:00,2,49817,0,0.00,2,2,0,2,48171,50000,549,50000,0,0,0,0,0.00,0.00,0.00,0.00
2016-09-09 07:40:00,2,49828,0,0.00,2,2,0,2,48279,50000,516,50000,0,0,0,0,0.00,0.00,0.00,0.00
2016-09-09 07:50:00,2,49876,0,0.00,2,2,0,2,49093,50000,280,50000,0,0,0,0,0.00,0.00,0.00,0.00
2016-09-09 08:00:00,2,49948,0,0.00,2,2,0,2,49475,50000,158,50000,0,0,0,0,0.00,0.00,0.00,0.00
2016-09-09 08:10:00,2,49874,0,0.00,2,2,0,2,49292,50000,255,50000,0,0,0,0,0.00,0.00,0.00,0.00
2016-09-09 08:20:00,2,50000,0,0.00,2,2,0,2,50000,50000,0,50000,0,0,0,0,0.00,0.00,0.00,0.00
2016-09-09 08:30:00,2,50000,0,0.00,2,2,0,2,50000,50000,0,50000,0,0,0,0,0.00,0.00,0.00,0.00
2016-09-09 08:40:00,2,50000,0,0.00,2,2,0,2,50000,50000,0,50000,0,0,0,0,0.00,0.00,0.00,0.00
2016-09-09 08:50:00,2,50000,0,0.00,2,2,0,2,50000,50000,0,50000,0,0,0,0,0.00,0.00,0.00,0.00
2016-09-09 09:00:00,2,50000,0,0.00,2,2,0,2,50000,50000,0,50000,0,0,0,0,0.00,0.00,0.00,0.00
2016-09-09 09:10:00,2,50000,0,0.00,2,2,0,2,50000,50000,0,50000,0,0,0,0,0.00,0.00,0.00,0.00
2016-09-09 09:20:00,2,50000,0,0.00,2,2,0,2,50000,50000,0,50000,0,0,0,0,0.00,0.00,0.00,0.00
2016-09-09 09:30:00,2,49999,0,0.00,2,2,0,2,49988,50000,4,50000,0,0,0,0,0.00,0.00,0.00,0.00
2016-09-09 09:40:00,2,50000,0,0.00,2,2,0,2,50000,50000,0,50000,0,0,0,0,0.00,0.00,0.00,0.00
2016-09-09 09:50:00,2,50000,0,0.00,2,2,0,2,50000,50000,0,50000,0,0,0,0,0.00,0.00,0.00,0.00
2016-09-09 10:00:00,2,49886,0,0.00,2,2,0,2,48855,50000,344,50000,0,0,0,0,0.00,0.00,0.00,0.00
2016-09-09 10:10:00,2,50000,0,0.00,2,2,0,2,50000,50000,0,50000,0,0,0,0,0.00,0.00,0.00,0.00
2016-09-09 10:20:00,2,49779,0,0.00,2,2,0,2,48096,50000,568,50000,0,0,0,0,0.00,0.00,0.00,0.00
2016-09-09 10:30:00,2,50000,0,0.00,2,2,0,2,50000,50000,0,50000,0,0,0,0,0.00,0.00,0.00,0.00
2016-09-09 10:40:00,2,50000,0,0.00,2,2,0,2,50000,50000,0,50000,0,0,0,0,0.00,0.00,0.00,0.00
2016-09-09 10:50:00,2,50000,0,0.00,2,2,0,2,50000,50000,0,50000,0,0,0,0,0.00,0.00,0.00,0.00
2016-09-09 11:00:00,2,49749,0,0.00,2,2,0,2,48668,50000,503,50000,0,0,0,0,0.00,0.00,0.00,0.00
2016-09-09 11:10:00,2,50000,0,0.00,2,2,0,2,50000,50000,0,50000,0,0,0,0,0.00,0.00,0.00,0.00
2016-09-09 11:20:00,2,50000,0,0.00,2,2,0,2,50000,50000,0,50000,0,0,0,0,0.00,0.00,0.00,0.00
2016-09-09 11:30:00,2,50000,0,0.00,2,2,0,2,50000,50000,0,50000,0,0,0,0,0.00,0.00,0.00,0.00
2016-09-09 11:40:00,2,50000,0,0.00,2,2,0,2,50000,50000,0,50000,0,0,0,0,0.00,0.00,0.00,0.00
2016-09-09 11:50:00,2,50000,0,0.00,2,2,0,2,50000,50000,0,50000,0,0,0,0,0.00,0.00,0.00,0.00
2016-09-09 12:00:00,2,50000,0,0.00,2,2,0,2,50000,50000,0,50000,0,0,0,0,0.00,0.00,0.00,0.00
2016-09-09 12:10:00,2,50000,0,0.00,2,2,0,2,50000,50000,0,50000,0,0,0,0,0.00,0.00,0.00,0.00
2016-09-09 12:20:00,2,50000,0,0.00,2,2,0,2,50000,50000,0,50000,0,0,0,0,0.00,0.00,0.00,0.00
2016-09-09 12:30:00,2,49585,0,0.00,2,2,0,2,47419,50000,803,50000,0,0,0,0,0.00,0.00,0.00,0.00
2016-09-09 12:40:00,2,49791,0,0.00,2,2,0,2,48804,50000,424,50000,0,0,0,0,0.00,0.00,0.00,0.00
2016-09-09 12:50:00,2,49958,0,0.00,2,2,0,2,49576,50000,127,50000,0,0,0,0,0.00,0.00,0.00,0.00
2016-09-09 13:00:00,2,47248,43,0.72,2,2,0,2,34722,50000,4831,50000,0,61,23,52,0.00,2.45,0.69,0.57
2016-09-09 13:10:00,2,47456,60,1.31,2,2,0,2,43505,50000,2580,47960,52,61,3,61,0.20,2.95,0.75,1.15
2016-09-09 13:20:00,2,49856,38,0.06,2,2,0,2,48556,50000,433,50000,0,51,19,46,0.00,0.45,0.13,0.00
2016-09-09 13:30:00,2,49965,0,0.00,2,2,0,2,49652,50000,104,50000,0,0,0,0,0.00,0.00,0.00,0.00
2016-09-09 13:40:00,2,49998,0,0.00,2,2,0,2,49982,50000,5,50000,0,0,0,0,0.00,0.00,0.00,0.00
2016-09-09 13:50:00,2,49964,0,0.00,2,2,0,2,49645,50000,106,50000,0,0,0,0,0.00,0.00,0.00,0.00
2016-09-09 14:00:00,2,50000,0,0.00,2,2,0,2,50000,50000,0,50000,0,0,0,0,0.00,0.00,0.00,0.00
2016-09-09 14:10:00,2,49868,0,0.00,2,2,0,2,48678,50000,397,50000,0,0,0,0,0.00,0.00,0.00,0.00
2016-09-09 14:20:00,2,47482,32,0.11,2,2,0,2,40238,50000,3532,49198,0,51,22,40,0.00,0.55,0.17,0.00
2016-09-09 14:30:00,2,50000,5,0.00,2,2,0,2,50000,50000,0,50000,0,51,15,0,0.00,0.00,0.00,0.00
2016-09-09 14:40:00,2,50000,0,0.00,2,2,0,2,50000,50000,0,50000,0,0,0,0,0.00,0.00,0.00,0.00
2016-09-09 14:50:00,2,50000,0,0.00,2,2,0,2,50000,50000,0,50000,0,0,0,0,0.00,0.00,0.00,0.00
2016-09-09 15:00:00,2,50000,0,0.00,2,2,0,2,50000,50000,0,50000,0,0,0,0,0.00,0.00,0.00,0.00
2016-09-09 15:10:00,2,50000,0,0.00,2,2,0,2,50000,50000,0,50000,0,0,0,0,0.00,0.00,0.00,0.00
2016-09-09 15:20:00,2,50000,0,0.00,2,2,0,2,50000,50000,0,50000,0,0,0,0,0.00,0.00,0.00,0.00
2016-09-09 15:30:00,2,50000,0,0.00,2,2,0,2,50000,50000,0,50000,0,0,0,0,0.00,0.00,0.00,0.00
2016-09-09 15:40:00,2,50000,0,0.00,2,2,0,2,50000,50000,0,50000,0,0,0,0,0.00,0.00,0.00,0.00
2016-09-09 15:50:00,2,49961,0,0.00,2,2,0,2,49606,50000,118,50000,0,0,0,0,0.00,0.00,0.00,0.00
2016-09-09 16:00:00,2,49983,0,0.00,2,2,0,2,49829,50000,51,50000,0,0,0,0,0.00,0.00,0.00,0.00
2016-09-09 16:10:00,2,50000,0,0.00,2,2,0,2,50000,50000,0,50000,0,0,0,0,0.00,0.00,0.00,0.00
2016-09-09 16:20:00,2,49929,0,0.00,2,2,0,2,49294,50000,212,50000,0,0,0,0,0.00,0.00,0.00,0.00
2016-09-09 16:30:00,2,50000,0,0.00,2,2,0,2,50000,50000,0,50000,0,0,0,0,0.00,0.00,0.00,0.00
2016-09-09 16:40:00,2,50000,0,0.00,2,2,0,2,50000,50000,0,50000,0,0,0,0,0.00,0.00,0.00,0.00
2016-09-09 16:50:00,2,49944,0,0.00,2,2,0,2,49445,50000,166,50000,0,0,0,0,0.00,0.00,0.00,0.00
2016-09-09 17:00:00,2,50000,0,0.00,2,2,0,2,50000,50000,0,50000,0,0,0,0,0.00,0.00,0.00,0.00
2016-09-09 17:10:00,2,50000,0,0.00,2,2,0,2,50000,50000,0,50000,0,0,0,0,0.00,0.00,0.00,0.00
2016-09-09 17:20:00,2,48185,8,0.01,2,2,0,2,43061,50000,2358,49528,0,40,16,0,0.00,0.15,0.05,0.00
2016-09-09 17:30:00,2,50000,24,0.02,2,2,0,2,50000,50000,0,50000,0,51,25,20,0.00,0.10,0.03,0.00
2016-09-09 17:40:00,2,49963,0,0.00,2,2,0,2,49631,50000,111,50000,0,0,0,0,0.00,0.00,0.00,0.00
2016-09-09 17:50:00,2,49274,14,0.07,2,2,0,2,45754,50000,1477,50000,0,61,22,0,0.00,0.45,0.15,0.00
2016-09-09 18:00:00,2,49652,53,0.42,2,2,0,2,48677,50000,535,50000,51,61,4,51,0.00,0.85,0.30,0.38
2016-09-09 18:10:00,2,49784,50,0.34,2,2,0,2,47838,50000,649,50000,41,51,3,51,0.00,0.70,0.26,0.38
2016-09-09 18:20:00,2,49773,4,0.00,2,2,0,2,47733,50000,680,50000,0,41,12,0,0.00,0.00,0.00,0.00
2016-09-09 18:30:00,2,48212,43,1.24,2,2,0,2,41542,50000,2717,49984,0,61,28,61,0.00,4.30,1.25,1.10
2016-09-09 18:40:00,2,39143,58,1.29,2,2,0,2,23248,50000,9481,42404,51,61,4,61,0.00,3.80,0.97,1.15
2016-09-09 18:50:00,2,31976,61,1.74,2,2,0,2,27202,42691,5119,29921,61,61,0,61,0.60,3.70,0.96,1.38
2016-09-09 19:00:00,2,35630,56,0.78,2,2,0,2,28172,42389,3975,35806,52,61,4,56,0.10,2.05,0.53,0.70
2016-09-09 19:10:00,2,43815,47,0.11,2,2,0,2,32092,50000,6017,45570,0,61,16,51,0.00,0.45,0.13,0.10
2016-09-09 19:20:00,2,49790,0,0.00,2,2,0,2,49060,50000,345,50000,0,0,0,0,0.00,0.00,0.00,0.00
2016-09-09 19:30:00,2,49630,0,0.00,2,2,0,2,48414,50000,590,50000,0,0,0,0,0.00,0.00,0.00,0.00
2016-09-09 19:40:00,2,46847,30,0.29,2,2,0,2,39986,50000,2967,46904,0,61,30,26,0.00,1.60,0.46,0.12
2016-09-09 19:50:00,2,46382,49,0.60,2,2,0,2,33342,50000,5112,48918,0,61,17,52,0.00,1.95,0.72,0.12
2016-09-09 20:00:00,2,46928,24,0.61,2,2,0,2,35498,50000,5313,49987,0,61,30,0,0.00,2.55,0.97,0.00
2016-09-09 20:10:00,2,50000,30,0.04,2,2,0,2,50000,50000,0,50000,0,61,30,26,0.00,0.25,0.08,0.00
2016-09-09 20:20:00,2,50000,0,0.00,2,2,0,2,50000,50000,0,50000,0,0,0,0,0.00,0.00,0.00,0.00
2016-09-09 20:30:00,2,50000,0,0.00,2,2,0,2,50000,50000,0,50000,0,0,0,0,0.00,0.00,0.00,0.00
2016-09-09 20:40:00,2,50000,0,0.00,2,2,0,2,50000,50000,0,50000,0,0,0,0,0.00,0.00,0.00,0.00
2016-09-09 20:50:00,2,49772,0,0.00,2,2,0,2,48752,50000,458,50000,0,0,0,0,0.00,0.00,0.00,0.00
2016-09-09 21:00:00,2,49097,0,0.00,2,2,0,2,45962,50000,1337,50000,0,0,0,0,0.00,0.00,0.00,0.00
2016-09-09 21:10:00,2,50000,0,0.00,2,2,0,2,50000,50000,0,50000,0,0,0,0,0.00,0.00,0.00,0.00
2016-09-09 21:20:00,2,49524,0,0.00,2,2,0,2,46139,50000,1152,50000,0,0,0,0,0.00,0.00,0.00,0.00
2016-09-09 21:30:00,2,50000,0,0.00,2,2,0,2,50000,50000,0,50000,0,0,0,0,0.00,0.00,0.00,0.00
2016-09-09 21:40:00,2,50000,0,0.00,2,2,0,2,50000,50000,0,50000,0,0,0,0,0.00,0.00,0.00,0.00
2016-09-09 21:50:00,2,50000,0,0.00,2,2,0,2,50000,50000,0,50000,0,0,0,0,0.00,0.00,0.00,0.00
2016-09-09 22:00:00,2,49922,0,0.00,2,2,0,2,49223,50000,233,50000,0,0,0,0,0.00,0.00,0.00,0.00
2016-09-09 22:10:00,2,50000,0,0.00,2,2,0,2,50000,50000,0,50000,0,0,0,0,0.00,0.00,0.00,0.00
2016-09-09 22:20:00,2,50000,0,0.00,2,2,0,2,50000,50000,0,50000,0,0,0,0,0.00,0.00,0.00,0.00
2016-09-09 22:30:00,2,50000,0,0.00,2,2,0,2,50000,50000,0,50000,0,0,0,0,0.00,0.00,0.00,0.00
2016-09-09 22:40:00,2,50000,0,0.00,2,2,0,2,50000,50000,0,50000,0,0,0,0,0.00,0.00,0.00,0.00
2016-09-09 22:50:00,2,48566,0,0.00,2,2,0,2,43794,50000,2210,50000,0,0,0,0,0.00,0.00,0.00,0.00
2016-09-09 23:00:00,2,47059,53,0.13,2,2,0,2,36066,50000,4747,49464,0,61,18,61,0.00,0.30,0.09,0.12
2016-09-09 23:10:00,2,49696,51,0.10,2,2,0,2,48281,50000,605,50000,41,61,6,51,0.00,0.20,0.07,0.10
2016-09-09 23:20:00,2,44116,6,0.00,2,2,0,2,34816,50000,4432,44437,0,61,18,0,0.00,0.00,0.00,0.00
2016-09-09 23:30:00,2,46669,0,0.00,2,2,0,2,43965,50000,1965,46183,0,0,0,0,0.00,0.00,0.00,0.00
2016-09-09 23:40:00,2,45778,0,0.00,2,2,0,2,33047,50000,5116,48224,0,0,0,0,0.00,0.00,0.00,0.00
2016-09-09 23:50:00,2,42473,0,0.00,2,2,0,2,30800,50000,7532,43419,0,0,0,0,0.00,0.00,0.00,0.00
